RH
94 86 56 82 75 67 41 48 36 26 26 23 21 19 14 13 15 16 17 17 15 14 14 14 12 11 11 10 10 10 10 10 11 16 14 11 20 38 44 52 71 81 100 90 86
77 100 96 100 95 91 85 64 56 37 30 27 31 34 32 26 22 17 15 15 17 17 16 16 18 16 14 14 13 11 11 11 11 12 10 9 10 10 10 13 41 40 52 90 100
100 85 85 62 91 100 100 98 69 61 54 46 34 27 27 28 25 25 23 21 20 19 17 17 19 16 17 17 14 14 12 12 13 12 11 9 8 8 7 6 9 34 47 27 84
94 98 72 80 64 57 52 45 46 59 47 39 39 35 35 33 31 33 46 40 36 29 32 29 22 22 23 23 19 16 17 19 22 16 14 14 11 9 8 7 6 7 16 37 32
81 100 79 97 74 70 52 57 54 41 45 61 53 53 44 48 49 44 49 79 76 52 45 55 53 47 50 38 38 36 35 30 29 30 21 19 16 12 8 10 9 6 6 9 28
100 100 98 79 77 65 56 54 55 60 61 50 55 75 94 94 93 92 85 76 68 65 68 72 74 83 94 100 83 77 65 50 40 37 38 26 15 11 12 14 10 7 7 7 6
77 84 77 86 82 62 60 53 45 48 54 53 52 54 55 60 72 73 94 88 67 89 89 94 89 76 64 62 56 42 33 33 34 31 29 14 13 10 9 10 7 7 5 7 7
54 53 54 52 50 47 43 43 44 41 38 42 41 40 41 41 41 41 42 42 45 54 60 66 56 46 48 47 47 35 32 34 53 34 18 7 9 8 7 8 8 9 8 8 7
52 52 51 50 50 54 51 46 48 46 47 46 46 46 48 49 46 44 48 46 47 46 47 48 46 43 40 37 38 34 35 37 34 25 13 10 8 7 5 4 6 6 6 6 9
66 71 66 67 63 60 59 58 58 51 53 50 47 49 48 49 50 50 52 55 53 51 50 49 45 44 41 35 35 33 43 31 28 18 12 8 8 6 5 4 4 5 6 7 6
88 96 84 81 93 95 83 72 71 91 77 90 68 58 50 52 52 52 48 47 47 47 47 45 41 43 40 34 41 43 37 24 21 16 10 9 7 5 4 3 3 4 6 6 6
76 82 97 100 93 96 100 94 92 94 93 90 89 88 94 77 59 56 60 57 56 55 56 53 38 39 44 36 40 40 36 27 21 14 8 6 5 4 4 3 2 2 3 4 4
87 88 91 100 100 100 87 100 100 100 100 93 97 99 100 99 88 84 82 72 69 64 61 62 53 50 41 48 46 52 40 31 17 17 9 6 5 4 4 3 2 2 3 3 4
99 95 95 100 100 100 99 100 100 100 93 92 97 98 96 100 100 100 100 98 91 77 73 64 61 66 49 42 41 52 43 53 29 16 10 7 6 4 4 3 3 3 3 3 4
100 96 99 100 94 100 100 100 89 100 93 98 94 94 100 99 100 100 100 100 98 100 88 81 67 66 70 55 49 55 51 59 51 32 19 22 7 5 4 4 3 3 2 3 5
100 98 94 99 100 94 99 100 97 96 96 98 99 100 100 98 100 100 100 100 100 100 97 100 85 74 67 66 52 60 60 68 74 46 38 26 9 7 6 5 4 4 3 4 4
100 100 100 85 98 94 81 92 95 95 83 98 96 89 95 100 100 100 100 100 97 100 99 98 93 84 61 74 64 50 62 65 97 78 56 44 17 8 8 7 5 6 5 5 6
100 98 93 82 81 77 81 57 80 84 99 95 96 91 100 100 99 100 100 100 100 97 100 100 100 98 80 68 84 68 70 58 75 86 86 69 27 20 11 10 7 7 7 8 8
100 95 78 80 48 64 50 42 52 66 75 98 97 97 88 100 98 100 100 100 94 97 99 96 100 100 87 80 70 90 67 72 87 75 94 90 54 84 35 15 29 21 15 17 17
99 97 97 69 64 39 41 49 46 35 47 80 100 98 88 62 97 99 100 99 99 100 97 92 95 100 99 87 71 73 70 77 86 74 99 94 86 70 100 57 19 100 100 98 100
100 100 81 55 43 31 20 23 24 24 25 46 80 85 74 49 45 89 94 80 89 95 98 93 86 100 100 91 96 82 70 66 91 66 99 96 99 72 63 34 64 66 100 100 100
96 98 63 52 44 27 14 13 11 10 13 20 30 56 65 67 26 39 80 76 78 78 85 80 79 89 100 100 90 91 76 63 72 85 61 94 100 86 61 46 89 95 100 100 100
100 79 56 29 24 22 13 9 7 7 8 10 19 29 52 70 46 25 48 55 53 54 57 57 67 76 88 94 97 90 80 70 61 85 44 88 96 100 100 78 100 100 100 100 100
99 94 59 16 16 13 10 8 7 7 7 8 9 12 22 36 46 27 18 25 34 32 35 31 34 42 44 64 86 95 62 68 61 75 73 48 80 98 98 100 100 46 96 100 100
96 100 100 42 13 12 8 6 7 6 6 7 8 7 8 11 16 19 13 14 18 20 22 19 23 22 25 31 36 56 73 48 55 65 75 52 66 80 88 100 100 100 100 100 100
82 100 99 77 13 13 8 6 6 6 6 6 6 7 8 9 10 12 12 14 16 16 13 14 15 15 21 19 18 33 51 38 36 61 69 72 46 50 70 100 100 100 100 94 100
91 88 90 50 16 12 9 6 6 5 6 6 6 6 7 7 8 9 10 11 12 14 12 12 10 9 14 15 18 22 30 36 37 46 61 70 49 45 71 100 100 100 100 100 100
Wind_Speed
21 23 23 25 28 27 29 33 33 38 44 46 45 45 48 49 52 55 57 59 63 66 68 70 74 77 79 81 83 84 85 88 91 93 94 96 101 108 108 112 113 109 103 98 103
24 24 27 26 28 28 32 35 36 38 39 44 47 50 53 54 56 59 61 62 62 64 68 71 73 76 79 82 86 88 88 92 94 95 98 100 102 108 109 106 112 124 117 116 105
31 28 36 34 31 29 33 33 37 41 42 43 42 44 51 54 59 63 66 68 69 70 70 74 76 81 84 87 89 92 96 98 101 104 104 107 108 107 109 109 111 114 117 122 117
32 35 34 35 40 39 39 38 37 38 44 47 49 50 51 53 55 55 58 62 61 63 69 71 74 78 82 84 88 90 94 97 100 103 106 110 113 114 114 111 120 118 119 129 127
35 42 43 38 41 43 44 41 42 43 45 47 48 52 55 59 60 62 66 69 70 72 74 77 78 76 78 81 84 88 90 94 99 103 109 113 116 119 118 118 123 124 123 128 131
38 44 45 42 45 44 42 44 49 50 52 53 56 59 61 62 66 67 69 69 74 74 75 77 82 85 86 90 95 96 96 99 102 107 109 118 119 125 121 130 130 130 129 133 133
38 39 40 42 45 40 41 41 40 41 47 50 56 60 61 66 70 75 76 79 81 80 82 84 87 89 89 88 88 88 85 86 94 97 100 109 108 115 120 131 123 127 126 138 143
41 41 40 41 40 38 39 39 37 36 36 37 39 41 43 46 52 54 56 58 60 65 71 75 77 77 77 77 81 80 77 77 94 99 96 97 92 104 102 110 116 122 129 135 142
43 44 42 41 41 41 40 39 38 35 37 39 40 42 43 45 45 45 48 51 54 57 59 64 67 68 70 69 71 72 65 73 81 89 86 96 91 95 90 95 104 114 121 125 136
50 48 47 45 43 41 41 42 42 40 41 42 40 40 40 42 44 45 47 48 50 53 56 59 61 60 62 61 61 59 60 71 75 77 81 87 78 72 71 71 79 101 113 118 121
55 52 51 51 48 49 46 47 46 49 48 48 48 44 42 42 43 43 44 45 46 45 48 51 51 51 56 57 54 52 62 61 71 70 70 73 69 63 65 62 67 78 96 108 112
66 57 53 52 52 49 50 50 47 48 50 46 49 50 49 52 50 49 49 48 49 49 51 53 50 45 46 49 43 49 54 59 61 59 58 48 58 52 55 54 54 62 76 90 93
75 63 58 55 54 53 49 51 51 51 50 51 48 49 49 53 55 57 54 53 51 53 52 53 49 51 40 46 39 49 47 55 54 48 48 38 43 40 42 43 43 47 61 75 83
83 70 63 55 57 53 58 55 52 50 51 51 51 51 50 51 52 55 55 55 56 55 56 57 50 49 50 43 36 42 44 48 53 45 35 37 33 34 33 33 33 40 53 63 76
89 79 76 66 59 56 58 62 55 52 52 51 52 51 51 50 50 54 53 55 55 56 57 62 57 51 49 48 42 38 39 41 50 47 37 47 32 22 22 23 22 31 41 53 66
91 84 83 78 65 59 57 60 62 54 54 53 52 52 53 51 52 53 54 56 56 55 56 57 61 56 47 47 43 34 35 36 42 42 39 39 27 16 11 14 20 27 42 51 59
98 96 87 82 71 62 58 56 56 57 53 52 55 54 54 53 55 54 53 54 56 55 55 56 60 60 52 43 46 38 31 27 34 36 37 37 19 12 1 10 22 30 38 49 51
105 101 92 87 72 62 56 57 55 54 56 57 58 56 57 56 53 51 52 54 56 56 54 51 51 59 57 48 39 42 35 26 22 26 32 33 22 8 1 13 24 33 40 39 54
112 107 98 88 81 66 59 56 54 53 56 58 61 58 58 56 53 53 54 56 57 56 54 53 50 56 55 52 37 41 33 27 22 20 24 24 20 12 5 8 22 27 25 39 54
116 116 103 90 84 71 65 62 58 56 52 57 60 61 59 56 55 55 55 58 57 57 56 54 50 51 54 53 46 33 35 27 19 12 15 16 6 7 12 2 14 28 36 48 63
117 117 110 97 85 79 69 67 65 61 56 54 57 57 58 55 54 56 57 58 59 59 59 58 53 51 52 52 49 43 36 26 22 11 7 4 8 11 19 23 15 31 52 70 65
124 123 113 106 94 84 75 70 65 60 58 57 55 53 53 53 52 54 58 59 60 61 61 58 52 50 51 53 48 42 38 34 24 16 7 5 15 16 21 29 31 38 61 81 78
131 128 114 105 95 83 77 75 68 61 56 55 52 50 51 54 53 53 56 58 59 60 59 58 54 51 49 49 48 44 41 39 31 23 17 12 22 28 25 30 32 58 64 75 79
127 136 127 109 93 79 72 70 65 60 54 50 48 47 46 52 55 52 54 54 56 58 57 54 52 51 46 46 44 47 41 42 39 32 24 20 22 38 37 43 44 49 74 78 85
131 133 137 123 98 81 71 66 60 56 53 52 48 48 44 46 51 53 53 49 52 53 54 52 49 49 45 45 43 41 45 45 42 42 30 30 28 44 53 50 48 52 77 88 92
133 137 135 126 101 86 78 69 61 54 53 51 48 47 46 44 46 51 51 55 51 55 53 51 50 48 47 46 39 37 46 46 42 47 39 38 36 43 55 58 58 55 57 89 98
134 135 138 118 105 87 80 73 64 57 58 54 47 45 46 45 44 47 49 51 50 53 55 52 51 44 43 44 39 41 44 46 45 45 49 47 41 37 59 65 63 62 63 70 94
Wind_Direction
308 320 313 307 301 292 279 279 277 273 268 266 260 261 261 261 260 258 259 259 258 258 258 259 258 257 257 256 255 255 255 256 255 254 253 251 249 248 247 240 247 245 238 239 241
306 309 309 306 296 293 288 283 274 272 271 267 264 264 264 263 263 262 262 261 262 265 265 262 261 261 260 260 259 258 257 256 257 255 254 253 252 252 250 249 247 246 241 243 238
308 292 300 289 288 297 286 283 273 268 268 267 268 266 266 266 268 266 264 265 265 264 264 262 262 264 262 261 260 260 259 259 259 258 257 256 255 252 250 250 247 248 246 242 237
303 295 305 294 289 284 282 279 276 274 271 272 270 271 267 266 268 266 265 266 268 267 271 267 262 262 262 262 263 262 262 261 262 261 260 259 258 255 252 250 248 244 246 243 239
306 305 303 293 294 295 288 283 281 275 270 269 270 270 270 268 267 269 263 264 266 269 271 272 268 267 265 263 266 265 264 264 263 263 261 259 257 254 253 251 248 247 245 246 241
306 305 305 306 298 297 293 287 281 279 277 276 272 271 271 269 269 269 269 268 269 269 267 266 266 267 266 266 267 269 269 268 269 266 263 259 254 254 250 246 245 245 244 244 241
327 321 318 313 311 306 302 302 297 288 284 283 279 276 276 276 272 269 267 269 270 266 266 267 269 272 271 270 270 269 268 269 269 265 261 259 256 253 254 252 252 249 242 239 243
333 329 324 319 313 312 309 305 309 302 301 296 289 282 282 281 277 277 276 276 276 274 272 272 273 274 273 271 271 270 272 271 271 271 269 268 264 263 256 253 250 246 246 242 242
348 343 339 330 323 325 322 318 314 310 308 304 301 297 290 289 287 284 282 280 279 276 276 276 276 276 275 274 274 275 274 270 269 273 275 273 273 268 261 253 247 245 243 240 240
348 345 343 339 337 333 328 325 323 322 322 320 314 310 305 305 302 297 293 291 288 286 283 282 281 281 278 277 276 274 273 273 277 281 282 279 279 274 265 253 242 239 237 237 238
346 341 341 340 336 333 331 329 327 324 323 322 321 321 314 310 309 306 303 300 298 297 296 296 293 290 285 280 277 278 278 282 289 289 285 284 280 277 272 261 247 234 231 233 234
355 342 334 330 332 328 329 326 321 316 313 315 316 316 314 314 316 313 311 311 310 310 310 307 308 300 294 289 286 282 288 294 301 299 290 284 283 278 269 261 249 238 229 229 227
357 349 336 328 324 324 322 318 318 319 310 307 308 306 307 307 311 312 313 313 310 310 309 309 309 310 303 300 297 289 295 308 310 309 307 302 285 279 271 258 246 230 226 224 222
354 353 347 330 323 319 316 316 311 310 309 307 303 303 303 302 303 304 305 305 307 308 309 308 310 312 311 306 299 296 306 317 318 317 320 319 308 290 272 264 247 231 219 217 218
353 353 350 339 329 316 311 312 310 303 303 304 301 300 299 299 300 300 299 299 301 303 306 307 310 311 312 310 305 299 306 321 328 329 338 332 319 287 274 266 244 231 213 207 208
353 351 349 343 332 323 314 307 308 306 300 300 299 299 297 296 296 296 296 293 295 297 300 303 306 308 310 309 305 297 304 321 333 335 341 337 321 302 273 242 222 200 199 195 196
352 351 347 345 337 327 322 313 307 304 303 297 296 297 297 297 294 294 293 292 291 292 297 301 301 305 310 314 311 302 300 319 332 333 334 347 334 309 327 196 190 177 186 183 188
351 352 349 346 337 330 322 318 311 305 299 297 296 297 294 295 294 291 290 288 290 290 291 294 294 300 306 308 312 303 298 306 330 342 333 344 355 332 293 177 182 168 177 179 176
352 353 349 345 342 332 325 320 316 308 302 294 295 298 294 289 288 288 285 285 286 288 288 289 289 295 299 300 301 301 289 296 319 345 341 339 3 28 77 194 159 142 156 164 176
353 351 349 344 342 334 326 319 313 309 304 297 291 294 299 290 284 283 281 281 283 283 285 284 286 289 295 299 300 295 287 282 295 332 336 331 41 99 150 203 178 146 145 164 159
351 352 348 345 340 337 329 320 314 308 302 293 289 291 294 292 288 282 280 279 278 280 282 281 283 282 286 289 293 293 282 261 268 280 312 324 180 125 147 156 167 168 149 158 164
355 353 351 346 340 336 330 325 319 313 305 297 291 287 291 288 287 283 279 280 279 280 280 282 283 281 280 284 285 285 274 264 244 252 240 229 189 161 147 149 148 166 159 160 164
357 357 350 345 341 335 331 326 322 318 311 304 297 290 287 285 284 284 280 279 280 280 281 281 281 278 278 277 278 277 270 261 238 239 239 182 183 170 170 156 159 163 165 169 176
354 357 353 347 342 337 333 327 324 320 315 308 302 294 286 283 282 282 282 280 278 280 280 281 281 279 275 272 269 273 263 257 246 227 225 207 184 176 169 152 154 171 176 174 180
354 353 353 352 345 338 335 330 326 324 321 313 307 302 296 288 286 287 287 289 285 282 282 282 280 277 277 270 264 255 256 255 245 231 218 227 188 191 166 165 161 162 176 177 178
355 353 353 352 348 341 336 333 329 326 324 319 315 307 300 292 289 287 290 287 283 284 280 280 278 276 274 269 264 256 249 250 245 234 216 224 219 187 178 173 173 174 175 182 187
353 355 354 350 350 343 337 334 329 327 324 322 317 313 306 299 294 288 285 282 282 280 281 282 279 278 275 271 262 251 248 247 243 232 223 224 225 201 181 181 184 181 181 181 193